Regional Weather Roundup
Issued by NWS

Home | Current Version | Previous Version | Graphics & Text | Print | Product List | Glossary On
Versions: 1 2 3 4 5 6 7 8 9 10 11 12 13 14 15 16 17 18 19 20 21 22 23 24 25 26 27 28 29 30 31 32 33 34 35 36 37 38 39 40 41 42 43 44 45 46 47 48 49 50
000
ASUS45 KBOU 271907
RWRCO

WEATHER ROUNDUP FOR COLORADO
NATIONAL WEATHER SERVICE DENVER/BOULDER CO
100 PM MDT THU AUG 27 2015

NOTE: "FAIR" INDICATES FEW OR NO CLOUDS BELOW 12000 FEET WITH NO
SIGNIFICANT WEATHER AND/OR OBSTRUCTIONS TO VISIBILITY.

COZ001>005-013-030-031-272000-
...NORTHWEST COLORADO...

CITY           SKY/WX    TMP DP  RH WIND       PRES   REMARKS
CRAIG          CLOUDY    75  54  47 W12G21    30.30F
HAYDEN         NOT AVBL
MEEKER         LGT RAIN  65  58  78 W12       30.33S
MOUNT WERNER   NOT AVBL
STEAMBOAT SPGS CLOUDY    59  57  92 CALM      30.34S
WALDEN         CLOUDY    61  46  59 NW13      30.37S
$$

COZ006>008-011-272000-
...WEST CENTRAL VALLEYS...

CITY           SKY/WX    TMP DP  RH WIND       PRES   REMARKS
GRAND JUNCTION MOSUNNY   74  62  66 CALM      30.24F
MONTROSE       PTSUNNY   73  60  63 N8        30.32F
EAGLE          PTSUNNY   68  57  68 CALM      30.33F
RIFLE          LGT RAIN  69  57  65 CALM      30.28F
DELTA          RAIN      75  61  60 CALM      30.28F
NUCLA          LGT RAIN  68  61  77 N5        30.35F
$$

COZ017>023-064>068-272000-
...SOUTHWEST COLORADO...

CITY           SKY/WX    TMP DP  RH WIND       PRES   REMARKS
DURANGO        PTSUNNY   71  53  52 W10       30.36F
CORTEZ         SUNNY     76  57  51 SW8       30.32F
PAGOSA SPRINGS CLOUDY    66  52  59 NE3       30.43F
TELLURIDE      CLOUDY    57  53  86 CALM      30.55S
WOLF CREEK PAS FOG       45  45 100 SW12      30.71S VSB 1/4
$$

COZ009-010-012-014-032>034-037-058>063-272000-
...CENTRAL COLORADO...

CITY           SKY/WX    TMP DP  RH WIND       PRES   REMARKS
ASPEN          CLOUDY    62  53  72 N9        30.40S
BUENA VISTA    CLOUDY    70  43  37 SW21      30.35F
COPPER MTN     LGT RAIN  48  43  81 W22       30.64F VSB 1/4
BERTHOUD PASS  LGT RAIN  41  30  65 W18G33    30.67S
COTTONWOOD PAS CLOUDY    64  45  48 NW6       30.49F
GUNNISON       CLOUDY    64  54  68 N3        30.43F
KREMMLING      DRIZZLE   64  52  63 SW5       30.37F
LEADVILLE      CLOUDY    60  41  49 NW12G20   30.49F
MONARCH PASS   FOG       45  45 100 W30G37    30.74F VSB<1/4
SALIDA         PTSUNNY   75  46  34 SW16G26   30.40F
SUNLIGHT       FOG       52  52 100 CALM      30.62S VSB 1/2
WILKERSON PASS PTSUNNY   59  39  47 SW3       30.61S
$$

COZ069>075-272000-
...SAN LUIS VALLEY/SANGRE DE CRISTO MOUNTAINS...

CITY           SKY/WX    TMP DP  RH WIND       PRES   REMARKS
ALAMOSA        CLOUDY    71  48  43 N6        30.37F
LA VETA PASS   MOSUNNY   64  45  48 S14G23    30.52F
SAGUACHE       CLOUDY    68  48  49 NW10      30.40F
$$

COZ035-036-038>040-272000-
...NORTHERN COLORADO FRONT RANGE...

CITY           SKY/WX    TMP DP  RH WIND       PRES   REMARKS
DENVER INTL AP MOSUNNY   84  47  27 W12       30.13F
DMNS CITY PARK   N/A     83  46  26 W21       30.12F
AURORA         PTSUNNY   81  49  32 E5        30.15F
FRONT RANGE AP PTSUNNY   82  46  28 N9G22     30.15F
ERIE MUNI ARPT MOSUNNY   84  44  24 W3G9      30.11F
BOULDER MUN AP PTSUNNY   84  46  26 W13G18    30.12F
CENTENNIAL     PTSUNNY   80  48  32 NW7       30.16F
BROOMFIELD     PTSUNNY   86  46  25 W12G22    30.16F
FORT COLLINS   MOSUNNY   81  54  39 N20       30.11F
LONGMONT       PTSUNNY   85  49  28 NE9       30.12F
$$

COZ041-046-047-076>085-087-088-272000-
...PIKES PEAK/PALMER DIVIDE AND SOUTHERN FOOTHILLS...

CITY           SKY/WX    TMP DP  RH WIND       PRES   REMARKS
COLO. SPRINGS  PTSUNNY   81  45  28 NW8       30.20F
A. F. ACADEMY  CLOUDY    79  45  30 N10       30.20F
ELLICOTT       PTSUNNY  N/A N/A N/A VRB3      30.17F
FALCON         PTSUNNY   82  43  25 W8        30.25F
FORT CARSON    PTSUNNY   84  48  28 VRB7      30.16F
LIMON          MOSUNNY   85  51  31 N16G22    30.12F
MONUMENT HILL  CLOUDY    75  43  31 CALM      30.26F
TRINIDAD       MOSUNNY   87  45  23 SE3       30.16F
$$

COZ042>045-048>051-090-091-272000-
...NORTHEAST COLORADO...

CITY           SKY/WX    TMP DP  RH WIND       PRES   REMARKS
GREELEY ARPT   SUNNY     86  52  30 NW20      30.09F
AKRON          MOSUNNY   90  47  22 NW22G31   30.04F
BURLINGTON     MOSUNNY   90  49  24 NW20G30   30.03F
WRAY           SUNNY     94  47  19 NW16G26   29.95F
STERLING       PTSUNNY   88  52  29 N17G30    29.99F
HOLYOKE        SUNNY     90  59  35 N15G23    29.96S
FORT MORGAN    MOSUNNY   89  45  21 NW15G24   30.06S
$$

COZ086-089-092>099-272000-
...SOUTHEAST COLORADO...

CITY           SKY/WX    TMP DP  RH WIND       PRES   REMARKS
PUEBLO         MOSUNNY   93  46  19 W15G23    30.07F
LA JUNTA       SUNNY     91  48  22 E7        30.04F
LAMAR          SUNNY     92  51  24 VRB3      29.98F
SPRINGFIELD      N/A     91  49  23 NW8       30.04F
$$




USA.gov is the U.S. government's official web portal to all federal, state and local government web resources and services.